Simultaneous Nadir Overpasses (SNOs) Predictions

Prediction of SNOs between GOES-16 and FY3D Satellite Orbit:

Table of predicted SNOs for the next 14.0 days since TLE Epoch: 11/25/2023
Index Date Time (GOES-16) GOES-16 Lat,Lon FY3D Lat,Lon Distance(km) Time Diff (sec)
1 11/25/2023 19:06:04 -0.00, -75.23 0.72, -72.18 348.17 80
2 11/27/2023 07:28:19 -0.00, -75.26 0.49, -77.53 258.38 80
3 11/28/2023 07:07:12 0.00, -75.29 -0.47, -73.05 254.26 80
4 11/29/2023 19:29:36 -0.00, -75.33 -0.69, -78.44 354.54 80
5 11/30/2023 19:13:50 -0.00, -75.36 0.33, -73.98 158.64 80
6 12/02/2023 07:36:04 0.00, -75.41 0.91, -79.32 446.24 80
7 12/03/2023 07:14:58 0.00, -75.44 -0.12, -74.85 67.21 80
8 12/05/2023 19:18:54 -0.00, -75.54 -0.06, -75.77 26.31 80
9 12/06/2023 19:03:08 -0.00, -75.58 0.97, -71.30 488.03 80
10 12/08/2023 07:25:22 0.00, -75.64 0.25, -76.65 114.85 80
